Yeovilton, United Kingdom

6:13 AM BST on April 28, 2017 (GMT +0100)
Yeovil Radar Navy

Weather History for EGDY - March, 2013

Change the Weather History Date:

Tuesday, March 5, 2013

  Actual Average Record
Temperature  
Mean Temperature 41 °F -  
Max Temperature 58 °F 50 °F 58 °F (2013)
Min Temperature 24 °F 36 °F 21 °F (2001)
Degree Days  
Heating Degree Days 24    
Moisture  
Dew Point 35 °F    
Average Humidity 78    
Maximum Humidity 100    
Minimum Humidity 46    
Precipitation  
Precipitation 0.00 in - - ()
Sea Level Pressure  
Sea Level Pressure 29.61 in    
Wind  
Wind Speed 3 mph ()    
Max Wind Speed 13 mph    
Max Gust Speed -    
Visibility 3.3 miles    
Events Fog    
Averages and records for this station are not official NWS values.
T = Trace of Precipitation, MM = Missing Value Source: Averaged Metar Reports

Daily Weather History Graph

Daily Weather History Graph

Search for Another Location

Airport or City:

Trip Planner

Search our weather history database for the weather conditions in past years. The results will help you decide how hot, cold, wet, or windy it might be!

Date:

Astronomy

Mar. 05, 2013 Rise Set
Actual Time 6:46 AM GMT 5:58 PM GMT
Civil Twilight 6:13 AM GMT 6:31 PM GMT
Nautical Twilight 5:35 AM GMT 7:09 PM GMT
Astronomical Twilight 4:56 AM GMT 7:48 PM GMT
Moon 2:13 AM GMT (3/5) 10:53 AM GMT (3/5)
Length of Visible Light 12h 18m
Length of Day
11h 12m
Last Quarter, 43% of the Moon is Illuminated
Mar 5
Last Quarter
Mar 11
New
Mar 19
First Quarter
Mar 27
Full
Apr 3
Last Quarter

Hourly Weather History & Observations

Time (GMT) Temp. Windchill Dew Point Humidity Pressure Visibility Wind Dir Wind Speed Gust Speed Precip Events Conditions
12:50 AM 28.4 °F - 28.4 °F 100% 29.68 in 2.5 mi NNW 1.2 mph - N/A   Scattered Clouds
1:50 AM 28.4 °F - 26.6 °F 93% 29.68 in 1.9 mi West 1.2 mph - N/A   Scattered Clouds
2:50 AM 26 °F - 25 °F 96% 29.69 in 0 mi West 1.2 mph - - Fog Fog
2:50 AM 26.6 °F - 24.8 °F 93% 29.68 in 0.3 mi West 1.2 mph - N/A Fog Light Freezing Fog
3:50 AM 26.6 °F - 26.6 °F 100% 29.65 in 0.1 mi WNW 1.2 mph - N/A Fog Light Freezing Fog
4:50 AM 24.8 °F - 24.8 °F 100% 29.65 in 0.0 mi SW 1.2 mph - N/A Fog Light Freezing Fog
5:50 AM 25 °F - 24 °F 96% 29.66 in 0 mi NW 1.2 mph - - Fog Fog
5:50 AM 24.8 °F - 24.8 °F 100% 29.65 in 0.0 mi NW 1.2 mph - N/A Fog Light Freezing Fog
6:50 AM - - - N/A% 29.65 in 0.0 mi West 3.5 mph - N/A Fog Light Freezing Fog
7:50 AM 26.6 °F 22.6 °F 26.6 °F 100% 29.65 in 0.1 mi SSW 3.5 mph - N/A Fog Light Freezing Fog
8:50 AM 28 °F - - % 29.67 in 0 mi NNW 1.2 mph - - Fog Fog
8:50 AM - - - N/A% 29.65 in 0.1 mi NNW 1.2 mph - N/A Fog Light Freezing Fog
9:22 AM 30.2 °F - 30.2 °F 100% 29.65 in 0.6 mi WNW 1.2 mph - N/A   Clear
9:50 AM 33.8 °F 30.8 °F 28.4 °F 81% 29.65 in 0.7 mi WSW 3.5 mph - N/A   Partly Cloudy
10:10 AM 35.6 °F 32.8 °F 35.6 °F 100% 29.65 in 1.1 mi West 3.5 mph - N/A   Partly Cloudy
10:32 AM 39.2 °F - 39.2 °F 100% 29.65 in 1.9 mi West 1.2 mph - N/A   Partly Cloudy
10:50 AM 42.8 °F - 41.0 °F 93% 29.62 in 2.8 mi WNW 1.2 mph - N/A   Partly Cloudy
11:32 AM 50.0 °F - 42.8 °F 76% 29.62 in 3.1 mi ENE 1.2 mph - N/A   Haze
11:50 AM 54 °F - 44 °F 59% 29.62 in 4 mi East 3.5 mph - -   Haze
11:50 AM 53.6 °F - 44.6 °F 72% 29.62 in 3.7 mi East 3.5 mph - N/A   Haze
12:50 PM 57.2 °F - 42.8 °F 59% 29.59 in 6.2 mi SE 6.9 mph - N/A   Partly Cloudy
1:50 PM 57.2 °F - 41.0 °F 55% 29.56 in 6.2 mi SE 9.2 mph - N/A   Partly Cloudy
2:50 PM 58 °F - 43 °F 46% 29.57 in 9 mi SE 11.5 mph - -   Scattered Clouds
2:50 PM 57.2 °F - 42.8 °F 59% 29.56 in 6.2 mi SE 11.5 mph - N/A   Scattered Clouds
3:50 PM 57.2 °F - 41.0 °F 55% 29.56 in 6.2 mi ESE 12.7 mph - N/A   Mostly Cloudy
4:50 PM 55.4 °F - 41.0 °F 58% 29.53 in 6.2 mi East 9.2 mph - N/A   Scattered Clouds
5:50 PM 51 °F - 39 °F 52% 29.57 in 12 mi ESE 8.1 mph - -   Partly Cloudy
5:50 PM 50.0 °F - 39.2 °F 66% 29.56 in - ESE 8.1 mph - N/A   Clear
6:50 PM 46.4 °F 42.4 °F 39.2 °F 76% 29.56 in 6.2 mi ESE 8.1 mph - N/A   Scattered Clouds
7:50 PM 44.6 °F 42.2 °F 37.4 °F 76% 29.56 in - East 4.6 mph - N/A   Clear
8:50 PM 46 °F - 37 °F 62% 29.57 in 9 mi ESE 4.6 mph - -   Mostly Cloudy
8:50 PM 46.4 °F 44.3 °F 37.4 °F 71% 29.56 in - ESE 4.6 mph - N/A   Clear
9:50 PM 46.4 °F 42.9 °F 37.4 °F 71% 29.56 in - ESE 6.9 mph - N/A   Clear
10:50 PM 46.4 °F 44.3 °F 37.4 °F 71% 29.53 in - East 4.6 mph - N/A   Clear
11:50 PM 44 °F - 36 °F 66% 29.55 in 9 mi East 5.8 mph - -   Mostly Cloudy
11:50 PM 44.6 °F 41.4 °F 37.4 °F 76% 29.53 in - East 5.8 mph - N/A   Clear